Flagstaff, AZ

12:25 AM MST on April 27, 2017 (GMT -0700)
Flagstaff Pulliam

Weather History for KFLG - July, 2012

Change the Weather History Date:

Friday, July 27, 2012

  Actual Average Record
Temperature  
Mean Temperature 68 °F 66 °F  
Max Temperature 79 °F 80 °F 93 °F (1947)
Min Temperature 56 °F 52 °F 36 °F (1913)
Degree Days  
Heating Degree Days 0 1  
Month to date heating degree days 15 32  
Since 1 June heating degree days 87  
Since 1 July heating degree days 15 32  
Cooling Degree Days 3 2  
Month to date cooling degree days 59 54  
Year to date cooling degree days 100 71  
Since 1 June cooling degree days 100  
Growing Degree Days 17 (Base 50)    
Moisture  
Dew Point 52 °F    
Average Humidity 63    
Maximum Humidity 87    
Minimum Humidity 39    
Precipitation  
Precipitation 0.17 in 0.11 in 1.13 in (1905)
Month to date precipitation 1.98 2.14  
Year to date precipitation 6.44 10.61  
Snow  
Snow 0.00 in 0.00 in 0.00 in (2002)
Month to date snowfall 0.0 0.0  
Since 1 July snowfall 0.0 0.0  
Snow Depth 0.00 in    
Sea Level Pressure  
Sea Level Pressure 30.03 in    
Wind  
Wind Speed 3 mph (NNE)    
Max Wind Speed 15 mph    
Max Gust Speed 23 mph    
Visibility 10 miles    
Events Rain , Thunderstorm    
T = Trace of Precipitation, MM = Missing Value Source: NWS Daily Summary

Daily Weather History Graph

Daily Weather History Graph

Search for Another Location

Airport or City:

Trip Planner

Search our weather history database for the weather conditions in past years. The results will help you decide how hot, cold, wet, or windy it might be!

Date:

Astronomy

Jul. 27, 2012 Rise Set
Actual Time 5:32 AM MST 7:33 PM MST
Civil Twilight 5:04 AM MST 8:01 PM MST
Nautical Twilight 4:29 AM MST 8:35 PM MST
Astronomical Twilight 3:53 AM MST 9:12 PM MST
Moon 2:34 PM MST 12:07 AM MST
Length of Visible Light 14h 57m
Length of Day
14h 00m
Waxing Gibbous, 66% of the Moon is Illuminated
Jul 27
Waxing Gibbous
Aug 1
Full
Aug 9
Last Quarter
Aug 17
New
Aug 24
First Quarter

Hourly Weather History & Observations

Time (MST) Temp. Dew Point Humidity Pressure Visibility Wind Dir Wind Speed Gust Speed Precip Events Conditions
12:57 AM 61.0 °F 48.9 °F 64% 29.96 in 10.0 mi Calm Calm - N/A   Overcast
1:57 AM 59.0 °F 48.0 °F 67% 29.99 in 10.0 mi Calm Calm - N/A   Clear
2:57 AM 57.0 °F 48.0 °F 72% 29.95 in 10.0 mi Calm Calm - N/A   Clear
3:57 AM 57.9 °F 48.9 °F 72% 29.96 in 10.0 mi SW 5.8 mph - N/A   Overcast
4:57 AM 59.0 °F 51.1 °F 75% 29.97 in 10.0 mi Calm Calm - 0.00 in Rain Light Rain
6:57 AM 59.0 °F 55.0 °F 87% 30.04 in 10.0 mi Calm Calm - 0.01 in Thunderstorm Thunderstorm
7:07 AM 57.2 °F 55.4 °F 94% 30.34 in 10.0 mi SW 3.5 mph - 0.00 in Rain Light Rain
7:57 AM 61.0 °F 57.0 °F 87% 30.08 in 10.0 mi Calm Calm - 0.00 in   Mostly Cloudy
8:57 AM 69.1 °F 55.0 °F 61% 30.04 in 10.0 mi Calm Calm - N/A   Clear
9:57 AM 72.0 °F 52.0 °F 49% 30.04 in 10.0 mi Calm Calm - N/A   Clear
10:57 AM 73.9 °F 50.0 °F 43% 30.03 in 10.0 mi Variable 3.5 mph - N/A   Clear
11:57 AM 75.0 °F 50.0 °F 41% 30.03 in 10.0 mi NE 4.6 mph - N/A   Overcast
12:57 PM 77.0 °F 50.0 °F 39% 30.00 in 10.0 mi Variable 4.6 mph - N/A   Scattered Clouds
1:57 PM 73.9 °F 53.1 °F 48% 30.02 in 10.0 mi NE 8.1 mph - N/A Thunderstorm Thunderstorm
2:57 PM 72.0 °F 51.1 °F 48% 30.02 in 10.0 mi NE 5.8 mph - N/A Thunderstorm Thunderstorm
3:13 PM 71.6 °F 51.8 °F 50% 30.32 in 10.0 mi ENE 4.6 mph - N/A   Scattered Clouds
3:57 PM 75.9 °F 52.0 °F 43% 29.99 in 10.0 mi NE 6.9 mph - N/A   Overcast
4:57 PM 77.0 °F 51.1 °F 40% 29.97 in 10.0 mi NW 10.4 mph 16.1 mph N/A   Mostly Cloudy
5:57 PM 73.9 °F 52.0 °F 46% 29.99 in 10.0 mi NNE 4.6 mph - N/A   Mostly Cloudy
6:57 PM 72.0 °F 48.9 °F 44% 30.00 in 10.0 mi Calm Calm - N/A   Clear
7:57 PM 68.0 °F 55.0 °F 63% 30.02 in 10.0 mi Calm Calm - N/A   Partly Cloudy
8:57 PM 66.9 °F 52.0 °F 59% 30.01 in 10.0 mi Calm Calm - N/A   Mostly Cloudy
9:57 PM 64.0 °F 53.1 °F 67% 30.02 in 10.0 mi Calm Calm - N/A   Overcast
10:57 PM 63.0 °F 52.0 °F 67% 30.02 in 10.0 mi North 4.6 mph - N/A   Clear
11:57 PM 63.0 °F 52.0 °F 67% 30.01 in 10.0 mi Calm Calm - N/A   Clear